Content
SEND FEEDBACK

Canada Flag

VICTORIA, BRITISH COLUMBIA


Home > North America > Canada > British Columbia
Elevation: 62 feet     Latitude: 48 39N     Longitude: 123 26W

WEATHER
 
SELECT A DAY
Number of Records: 215,128;   Date Range: 1/1/95 - 3/22/16
 
SHARE

PRINT THIS DATA

[ ← Previous Day ]
WEATHER ALMANAC - SEPTEMBER 16, 2013
[ Next Day → ]
[ °C ]   °F
Weather ElementAverageHighLow
Temperature61.5 °F68 °F (2:00 pm)55.4 °F (1:00 am)
Dewpoint55.1 °F59 °F (11:00 am)48.2 °F (9:00 pm)
Humidity79.4 %100 % (1:00 am)60 % (2:00 pm)
Barometer29.86 in29.92 in (9:00 pm)29.78 in (1:00 am)
Wind Speed6.2 mph11.5 mph (10:00 am)
Weather ElementAverage
Visibility18.8 mi
Wind DirectionSSE (153.3 °)

Weather ElementTotal
Precipitation---
Heating Degree Days3.3 (Base 65)
Growing Degree Days11.7 (Base 50)
Averaged from 27 records on September 16, 2013
WEATHER CONDITIONS BREAKOUT
WIND DIRECTION BREAKOUT
WEATHER BY HOUR - SEPTEMBER 16, 2013
[ °C ]   °F
Local TimeTemperatureDewpointHumidityBarometerVisibilityWind DirectionWind SpeedGust SpeedPrecipitationEventsConditions
1:00 AM55.4 °F55.4 °F100 %29.78 in5.0 miEast (80°)4.6 mphRainLight Rain
1:21 AM55.4 °F55.4 °F100 %29.78 in8.0 miEast (80°)3.5 mphOvercast
2:00 AM57.2 °F55.4 °F94 %29.78 in12.0 miEast (90°)5.8 mphOvercast
3:00 AM57.2 °F55.4 °F94 %29.78 in15.0 miEast (90°)5.8 mphOvercast
4:00 AM60.8 °F57.2 °F88 %29.80 in15.0 miNNW (330°)3.5 mphOvercast
5:00 AM62.6 °F55.4 °F77 %29.80 in15.0 miSSW (210°)9.2 mphOvercast
5:00 AM62.0 °F56.0 °F75 %29.80 in15.0 miSSW (200°)6.9 mphPartly Cloudy
6:00 AM60.8 °F57.2 °F88 %29.81 in30.0 miWest (270°)4.6 mphMostly Cloudy
7:00 AM60.8 °F55.4 °F82 %29.83 in15.0 miSouth (170°)3.5 mphMostly Cloudy
8:00 AM62.6 °F55.4 °F77 %29.84 in15.0 miSouth (180°)6.9 mphMostly Cloudy
9:00 AM62.6 °F57.2 °F82 %29.86 in15.0 miSouth (190°)6.9 mphMostly Cloudy
10:00 AM64.4 °F57.2 °F77 %29.86 in20.0 miSSE (160°)11.5 mphMostly Cloudy
11:00 AM64.4 °F59.0 °F83 %29.87 in20.0 miESE (120°)8.1 mphMostly Cloudy
12:00 PM64.4 °F57.2 °F77 %29.88 in20.0 miESE (110°)6.9 mphMostly Cloudy
1:00 PM66.2 °F57.2 °F73 %29.89 in20.0 miEast (100°)4.6 mphMostly Cloudy
2:00 PM68.0 °F53.6 °F60 %29.90 in20.0 miWest (270°)11.5 mphMostly Cloudy
3:00 PM68.0 °F53.6 °F60 %29.90 in20.0 miSW (230°)8.1 mphMostly Cloudy
4:00 PM68.0 °F55.4 °F64 %29.89 in20.0 miNE (50°)8.1 mphMostly Cloudy
5:00 PM64.0 °F57.0 °F71 %29.90 in19.0 miNE (40°)8.1 mphScattered Clouds
5:00 PM64.4 °F57.2 °F77 %29.90 in20.0 miNE (40°)8.1 mphScattered Clouds
6:00 PM62.6 °F57.2 °F82 %29.90 in20.0 miENE (60°)5.8 mphMostly Cloudy
7:00 PM60.8 °F57.2 °F88 %29.90 in20.0 miVariable2.3 mphScattered Clouds
8:00 PM59.0 °F57.2 °F94 %29.91 in20.0 miSSE (150°)3.5 mphMostly Cloudy
9:00 PM60.8 °F48.2 °F63 %29.92 in20.0 miWSW (240°)9.2 mphMostly Cloudy
10:00 PM57.2 °F48.2 °F72 %29.92 in30.0 miSW (230°)3.5 mphMostly Cloudy
11:00 PM56.0 °F49.0 °F70 %29.92 in28.0 miSW (220°)3.5 mphPartly Cloudy
11:00 PM55.4 °F48.2 °F77 %29.92 in30.0 miSW (230°)3.5 mphScattered Clouds
Hourly data recorded from CYYJ, located miles away from Victoria, British Columbia




STORIES FROM OUR PARTNERS